When you browse on this site, cookies collect data to enhance your experience and personalize the content and advertising you see.
Visit our Privacy Policy to learn more. By continuing to use the site, you agree to this use of cookies and data.
  • In Romania
  • List of Countries
  • For 7 days
  • Water Temperature
  • Satellite Maps
  • Weather Map
  • Weather Widgets
  • user-avatar
    Login

    Hourly Weather Apsheronsk

    Today, 20 May, Monday

    Time Temperature Precipitation Wind Pressure Humidity
    00:00 +18°C° 1.1 mm 1 mps 741 mmHg 97%
    01:00 +18°C° 0.2 mm 1 mps 741 mmHg 97%
    02:00 +18°C° 0.2 mm 1 mps 742 mmHg 97%
    03:00 +16°C° 0 mm 1 mps 741 mmHg 97%
    04:00 +16°C° 0.3 mm 1 mps 742 mmHg 97%
    05:00 +16°C° 0.3 mm 1 mps 742 mmHg 97%
    06:00 +18°C° 0.3 mm 1 mps 742 mmHg 97%
    07:00 +19°C° 0 mm 1 mps 742 mmHg 92%
    08:00 +20°C° 0 mm 1 mps 743 mmHg 87%
    09:00 +22°C° 0 mm 1 mps 743 mmHg 84%
    10:00 +22°C° 0.1 mm 1 mps 743 mmHg 81%
    11:00 +23°C° 0.1 mm 1 mps 743 mmHg 79%
    12:00 +23°C° 0.1 mm 1 mps 743 mmHg 76%
    13:00 +24°C° 0.2 mm 1 mps 743 mmHg 74%
    14:00 +25°C° 0.2 mm 1 mps 743 mmHg 72%
    15:00 +25°C° 0 mm 3 mps 744 mmHg 66%
    16:00 +25°C° 0.1 mm 3 mps 744 mmHg 67%
    17:00 +24°C° 0.1 mm 3 mps 743 mmHg 68%
    18:00 +24°C° 0.1 mm 3 mps 743 mmHg 70%
    19:00 +21°C° 0 mm 2 mps 743 mmHg 76%
    20:00 +19°C° 0 mm 2 mps 743 mmHg 83%
    21:00 +19°C° 0 mm 1 mps 743 mmHg 89%
    22:00 +18°C° 0 mm 1 mps 744 mmHg 90%
    23:00 +18°C° 0 mm 1 mps 744 mmHg 92%

    Tomorrow, 21 May, Tuesday

    Time Temperature Precipitation Wind Pressure Humidity
    00:00 +16°C° 0 mm 1 mps 744 mmHg 93%
    01:00 +16°C° 0 mm 1 mps 744 mmHg 93%
    02:00 +15°C° 0 mm 1 mps 744 mmHg 93%
    03:00 +15°C° 0 mm 1 mps 744 mmHg 93%
    04:00 +16°C° 0 mm 1 mps 744 mmHg 92%
    05:00 +16°C° 0 mm 1 mps 744 mmHg 91%
    06:00 +16°C° 0 mm 1 mps 744 mmHg 90%
    07:00 +20°C° 0 mm 1 mps 745 mmHg 83%
    08:00 +22°C° 0 mm 1 mps 745 mmHg 75%
    09:00 +24°C° 0 mm 1 mps 745 mmHg 67%
    10:00 +25°C° 0 mm 1 mps 745 mmHg 62%
    11:00 +27°C° 0 mm 1 mps 745 mmHg 57%
    12:00 +28°C° 0 mm 2 mps 745 mmHg 52%
    13:00 +27°C° 0.2 mm 2 mps 745 mmHg 57%
    14:00 +27°C° 0.2 mm 2 mps 744 mmHg 63%
    15:00 +26°C° 0.2 mm 1 mps 744 mmHg 68%
    16:00 +25°C° 1.1 mm 1 mps 744 mmHg 75%
    17:00 +25°C° 1.1 mm 1 mps 744 mmHg 82%
    18:00 +24°C° 1.1 mm 1 mps 743 mmHg 90%
    19:00 +22°C° 0.1 mm 1 mps 743 mmHg 91%
    20:00 +21°C° 0.1 mm 1 mps 743 mmHg 92%
    21:00 +20°C° 0.1 mm 1 mps 743 mmHg 93%
    22:00 +19°C° 0 mm 1 mps 743 mmHg 93%
    23:00 +19°C° 0 mm 1 mps 743 mmHg 93%

    Day after tomorrow, 22 May, Wednesday

    Time Temperature Precipitation Wind Pressure Humidity
    00:00 +19°C° 0 mm 1 mps 743 mmHg 93%
    01:00 +19°C° 0 mm 1 mps 742 mmHg 93%
    02:00 +18°C° 0 mm 1 mps 742 mmHg 93%
    03:00 +18°C° 0 mm 1 mps 742 mmHg 93%
    04:00 +18°C° 0 mm 1 mps 742 mmHg 92%
    05:00 +18°C° 0 mm 1 mps 742 mmHg 91%
    06:00 +18°C° 0 mm 1 mps 741 mmHg 90%
    07:00 +19°C° 0.2 mm 1 mps 741 mmHg 90%
    08:00 +19°C° 0.2 mm 1 mps 741 mmHg 89%
    09:00 +20°C° 0.2 mm 1 mps 741 mmHg 89%
    10:00 +20°C° 1.1 mm 1 mps 741 mmHg 90%
    11:00 +20°C° 1.1 mm 1 mps 741 mmHg 92%
    12:00 +19°C° 1.1 mm 2 mps 741 mmHg 93%
    13:00 +20°C° 1.2 mm 2 mps 741 mmHg 88%
    14:00 +21°C° 1.2 mm 2 mps 742 mmHg 83%
    15:00 +23°C° 1.2 mm 2 mps 742 mmHg 78%
    16:00 +21°C° 0.9 mm 2 mps 742 mmHg 80%
    17:00 +21°C° 0.9 mm 2 mps 741 mmHg 81%
    18:00 +22°C° 0.9 mm 1 mps 741 mmHg 83%
    19:00 +20°C° 0.6 mm 1 mps 742 mmHg 86%
    20:00 +18°C° 0.6 mm 1 mps 742 mmHg 90%
    21:00 +15°C° 0.6 mm 2 mps 742 mmHg 94%
    22:00 +15°C° 0.2 mm 2 mps 742 mmHg 94%
    23:00 +15°C° 0.2 mm 2 mps 742 mmHg 94%

    23 May, Thursday

    Time Temperature Precipitation Wind Pressure Humidity
    00:00 +14°C° 0.2 mm 2 mps 742 mmHg 94%
    01:00 +14°C° 0 mm 2 mps 743 mmHg 93%
    02:00 +14°C° 0 mm 3 mps 743 mmHg 92%
    03:00 +14°C° 0 mm 3 mps 743 mmHg 91%
    04:00 +14°C° 0 mm 3 mps 743 mmHg 90%
    05:00 +14°C° 0 mm 3 mps 743 mmHg 88%
    06:00 +14°C° 0 mm 3 mps 743 mmHg 86%
    07:00 +17°C° 0 mm 3 mps 743 mmHg 77%
    08:00 +19°C° 0 mm 4 mps 743 mmHg 68%
    09:00 +20°C° 0 mm 4 mps 743 mmHg 59%
    10:00 +21°C° 0 mm 4 mps 743 mmHg 54%
    11:00 +22°C° 0 mm 5 mps 743 mmHg 49%
    12:00 +23°C° 0 mm 5 mps 743 mmHg 45%
    13:00 +25°C° 0 mm 5 mps 743 mmHg 44%
    14:00 +25°C° 0 mm 5 mps 743 mmHg 43%
    15:00 +25°C° 0 mm 5 mps 743 mmHg 42%
    16:00 +25°C° 0 mm 4 mps 743 mmHg 48%
    17:00 +23°C° 0 mm 4 mps 743 mmHg 53%
    18:00 +22°C° 0 mm 3 mps 743 mmHg 58%
    19:00 +19°C° 0 mm 3 mps 743 mmHg 65%
    20:00 +17°C° 0 mm 3 mps 743 mmHg 72%
    21:00 +15°C° 0 mm 2 mps 743 mmHg 79%
    22:00 +15°C° 0 mm 2 mps 743 mmHg 76%
    23:00 +15°C° 0 mm 2 mps 743 mmHg 72%

    24 May, Friday

    Time Temperature Precipitation Wind Pressure Humidity
    00:00 +14°C° 0 mm 2 mps 743 mmHg 69%
    01:00 +14°C° 0 mm 2 mps 743 mmHg 65%
    02:00 +14°C° 0 mm 2 mps 743 mmHg 62%
    03:00 +14°C° 0 mm 2 mps 743 mmHg 59%
    04:00 +14°C° 0 mm 2 mps 743 mmHg 59%
    05:00 +14°C° 0 mm 2 mps 743 mmHg 60%
    06:00 +14°C° 0 mm 2 mps 743 mmHg 60%
    07:00 +18°C° 0 mm 1 mps 743 mmHg 54%
    08:00 +21°C° 0 mm 1 mps 743 mmHg 48%
    09:00 +22°C° 0 mm 0 mps 743 mmHg 43%
    10:00 +25°C° 0 mm 1 mps 743 mmHg 41%
    11:00 +26°C° 0 mm 1 mps 743 mmHg 39%
    12:00 +27°C° 0 mm 2 mps 742 mmHg 38%
    13:00 +28°C° 0 mm 2 mps 742 mmHg 39%
    14:00 +28°C° 0 mm 2 mps 742 mmHg 40%
    15:00 +28°C° 0 mm 2 mps 741 mmHg 42%
    16:00 +27°C° 0 mm 2 mps 741 mmHg 49%
    17:00 +26°C° 0 mm 2 mps 741 mmHg 57%
    18:00 +25°C° 0 mm 2 mps 741 mmHg 64%
    19:00 +24°C° 0 mm 2 mps 740 mmHg 68%
    20:00 +21°C° 0 mm 2 mps 740 mmHg 73%
    21:00 +19°C° 0 mm 2 mps 740 mmHg 78%
    22:00 +19°C° 0 mm 2 mps 740 mmHg 74%
    23:00 +19°C° 0 mm 1 mps 739 mmHg 71%

    25 May, Saturday

    Time Temperature Precipitation Wind Pressure Humidity
    00:00 +19°C° 0 mm 1 mps 739 mmHg 68%
    01:00 +19°C° 0 mm 1 mps 739 mmHg 67%
    02:00 +19°C° 0 mm 1 mps 738 mmHg 67%
    03:00 +18°C° 0 mm 1 mps 737 mmHg 67%
    04:00 +18°C° 0.2 mm 1 mps 737 mmHg 71%
    05:00 +18°C° 0.2 mm 1 mps 737 mmHg 75%
    06:00 +18°C° 0.2 mm 1 mps 737 mmHg 79%
    07:00 +21°C° 0 mm 1 mps 736 mmHg 71%
    08:00 +24°C° 0 mm 1 mps 736 mmHg 62%
    09:00 +27°C° 0 mm 1 mps 736 mmHg 53%
    10:00 +29°C° 0 mm 2 mps 735 mmHg 47%
    11:00 +31°C° 0 mm 2 mps 735 mmHg 40%
    12:00 +34°C° 0 mm 2 mps 735 mmHg 34%
    13:00 +34°C° 0 mm 4 mps 735 mmHg 33%
    14:00 +34°C° 0 mm 5 mps 735 mmHg 31%
    15:00 +34°C° 0 mm 6 mps 735 mmHg 30%
    16:00 +32°C° 0 mm 6 mps 735 mmHg 38%
    17:00 +29°C° 0 mm 5 mps 735 mmHg 46%
    18:00 +27°C° 0 mm 4 mps 735 mmHg 54%
    19:00 +25°C° 0 mm 4 mps 736 mmHg 60%
    20:00 +22°C° 0 mm 4 mps 737 mmHg 66%
    21:00 +21°C° 0 mm 4 mps 737 mmHg 72%
    22:00 +20°C° 0 mm 4 mps 738 mmHg 75%
    23:00 +20°C° 0 mm 4 mps 738 mmHg 78%
    Show more